sat.trackr.live / text

‹ back to catalog

STARLINK-32602

NORAD 62181 · 2024-225U

PAYLOAD ACTIVE UNKNOWN

§ Identity

Operator
Country
US
Launch date
2024-11-30
Launch site
AFWTR
Launch vehicle
Mass (kg)
RCS (m²)

Purposes: comms

External: N2YO · Heavens-Above · Gunter

§ Orbital elements

Epoch: 2026-09-21T17:29:50.250048Z

Period
94.14 min
Inclination
70.0004°
Eccentricity
0.0003618
Mean motion
15.29583128 rev/d
Perigee alt
474.6 km
Apogee alt
479.5 km
Semi-major
6,855.2 km
B*
4.3504e-4
RAAN
17.6202°
Arg perigee
266.8489°
Mean anomaly
93.2272°
Rev number
9,955

§ Raw data

STARLINK-326021 62181U 24225U   26264.72905382  .00012400  00000+0  43504-3 0  99942 62181  70.0004  17.6202 0003618 266.8489  93.2272 15.29583128 99557

JSON: /api/v1/satellites/62181 · /tle

For live sub-satellite position, see the globe view (requires WebGL).

§ Visibility from observer

Set your observer location to see the next 7 days of passes ≥ 10°. The values pass through the URL so the page stays shareable.

No JS? Fill the form by hand. The geolocation button needs JavaScript.